Location: Newark
(35.2672°N, 80.7344°W)
Time: 13:37:28
(UTC+00:00)

Transit 2A Rocket - Pass Details

Date: 03 February 2020
Orbit: 591 x 912 km, 66.7° (Epoch: 24 February)

Event Time Altitude Azimuth Distance (km) Brightness Sun altitude
Rises 07:47:19 0° 198° (SSW) 2,849 - -55.5°
Reaches altitude 10° 07:49:36 10° 195° (SSW) 1,929 - -55.1°
Maximum altitude 07:53:51 64° 114° (ESE) 656 - -54.3°
Drops below altitude 10° 07:58:06 10° 33° (NNE) 1,933 - -53.5°
Sets 08:00:22 0° 31° (NNE) 2,856 - -53.0°
